Time,TemperatureF,DewpointF,PressureIn,WindDirection,WindDirectionDegrees,WindSpeedMPH,WindSpeedGustMPH,Humidity,HourlyPrecipIn,Conditions,Clouds,dailyrainin,SoftwareType,DateUTC
2013-08-30 00:02:00,82.0,75.2,29.93,WSW,248,0.0,1.0,80,0.00,,,0.00,VWS V14.01,2013-08-30 04:02:00,
2013-08-30 00:03:00,82.0,75.2,29.94,WSW,248,0.0,1.0,80,0.00,,,0.00,VWS V14.01,2013-08-30 04:03:00,
2013-08-30 00:05:00,82.0,75.2,29.94,WSW,247,0.0,0.0,80,0.00,,,0.00,VWS V14.01,2013-08-30 04:05:00,
2013-08-30 00:08:00,81.9,75.5,29.93,WSW,248,0.0,0.0,81,0.00,,,0.00,VWS V14.01,2013-08-30 04:08:00,
2013-08-30 00:13:00,81.8,75.4,29.93,WSW,248,0.0,0.0,81,0.00,,,0.00,VWS V14.01,2013-08-30 04:13:00,
2013-08-30 00:18:00,81.8,75.8,29.93,WSW,248,0.0,1.0,82,0.00,,,0.00,VWS V14.01,2013-08-30 04:18:00,
2013-08-30 00:26:00,81.8,75.8,29.93,WSW,248,0.0,0.0,82,0.00,,,0.00,VWS V14.01,2013-08-30 04:26:00,
2013-08-30 00:32:00,81.7,76.0,29.93,WSW,248,0.0,0.0,83,0.00,,,0.00,VWS V14.01,2013-08-30 04:32:00,
2013-08-30 00:38:00,81.6,75.9,29.93,WSW,247,0.0,0.0,83,0.00,,,0.00,VWS V14.01,2013-08-30 04:38:00,
2013-08-30 00:43:00,81.5,75.8,29.93,WSW,247,0.0,1.0,83,0.00,,,0.00,VWS V14.01,2013-08-30 04:43:00,
2013-08-30 00:50:00,81.5,76.2,29.93,WSW,248,0.0,0.0,84,0.00,,,0.00,VWS V14.01,2013-08-30 04:50:00,
2013-08-30 00:53:00,81.5,76.6,29.93,WSW,248,0.0,0.0,85,0.00,,,0.00,VWS V14.01,2013-08-30 04:53:00,
2013-08-30 00:58:00,81.5,76.6,29.92,WSW,248,0.0,1.0,85,0.00,,,0.00,VWS V14.01,2013-08-30 04:58:00,
2013-08-30 01:03:00,81.5,76.6,29.92,WSW,248,1.0,1.0,85,0.00,,,0.00,VWS V14.01,2013-08-30 05:03:00,
2013-08-30 01:08:00,81.5,76.6,29.92,WSW,248,0.0,2.0,85,0.00,,,0.00,VWS V14.01,2013-08-30 05:08:00,
2013-08-30 01:13:00,81.5,76.6,29.92,WSW,248,0.0,1.0,85,0.00,,,0.00,VWS V14.01,2013-08-30 05:13:00,
2013-08-30 01:20:00,81.5,76.6,29.92,WSW,248,0.0,1.0,85,0.00,,,0.00,VWS V14.01,2013-08-30 05:20:00,
2013-08-30 01:26:00,81.5,76.6,29.92,WSW,248,0.0,1.0,85,0.00,,,0.00,VWS V14.01,2013-08-30 05:26:00,
2013-08-30 01:32:00,81.6,76.7,29.92,WSW,248,0.0,1.0,85,0.00,,,0.00,VWS V14.01,2013-08-30 05:32:00,
2013-08-30 01:38:00,81.6,76.3,29.92,WSW,247,0.0,1.0,84,0.00,,,0.00,VWS V14.01,2013-08-30 05:38:00,
2013-08-30 01:43:00,81.6,76.3,29.92,WSW,248,0.0,1.0,84,0.00,,,0.00,VWS V14.01,2013-08-30 05:43:00,
2013-08-30 01:48:00,81.5,76.2,29.92,WSW,248,0.0,1.0,84,0.00,,,0.00,VWS V14.01,2013-08-30 05:48:00,
2013-08-30 01:53:00,81.5,75.8,29.92,WSW,248,0.0,1.0,83,0.00,,,0.00,VWS V14.01,2013-08-30 05:53:00,
2013-08-30 01:58:00,81.4,75.7,29.92,WSW,247,3.0,4.0,83,0.00,,,0.00,VWS V14.01,2013-08-30 05:58:00,
2013-08-30 02:05:00,81.4,75.4,29.92,WSW,248,0.0,3.0,82,0.00,,,0.00,VWS V14.01,2013-08-30 06:05:00,
2013-08-30 02:11:00,81.4,74.6,29.92,SW,231,2.0,5.0,80,0.00,,,0.00,VWS V14.01,2013-08-30 06:11:00,
2013-08-30 02:17:00,81.3,74.5,29.92,SW,228,4.0,4.0,80,0.00,,,0.00,VWS V14.01,2013-08-30 06:17:00,
2013-08-30 02:23:00,81.2,74.8,29.92,SW,228,3.0,3.0,81,0.00,,,0.00,VWS V14.01,2013-08-30 06:23:00,
2013-08-30 02:29:00,81.1,74.7,29.91,SW,229,0.0,3.0,81,0.00,,,0.00,VWS V14.01,2013-08-30 06:29:00,
2013-08-30 02:35:00,80.9,74.5,29.91,SW,229,0.0,3.0,81,0.00,,,0.00,VWS V14.01,2013-08-30 06:35:00,
2013-08-30 02:41:00,80.8,74.4,29.91,SW,228,2.0,3.0,81,0.00,,,0.00,VWS V14.01,2013-08-30 06:41:00,
2013-08-30 02:47:00,80.7,74.3,29.91,SW,228,0.0,4.0,81,0.00,,,0.00,VWS V14.01,2013-08-30 06:47:00,
2013-08-30 02:53:00,80.7,74.3,29.91,SW,229,0.0,1.0,81,0.00,,,0.00,VWS V14.01,2013-08-30 06:53:00,
2013-08-30 02:58:00,80.6,74.2,29.91,SW,229,0.0,1.0,81,0.00,,,0.00,VWS V14.01,2013-08-30 06:58:00,
2013-08-30 03:05:00,80.5,74.1,29.91,SW,228,0.0,0.0,81,0.00,,,0.00,VWS V14.01,2013-08-30 07:05:00,
2013-08-30 03:11:00,80.4,74.0,29.91,SW,229,0.0,1.0,81,0.00,,,0.00,VWS V14.01,2013-08-30 07:11:00,
2013-08-30 03:17:00,80.3,74.3,29.91,SW,228,0.0,1.0,82,0.00,,,0.00,VWS V14.01,2013-08-30 07:17:00,
2013-08-30 03:23:00,80.3,74.3,29.91,SW,228,0.0,1.0,82,0.00,,,0.00,VWS V14.01,2013-08-30 07:23:00,
2013-08-30 03:28:00,80.2,74.2,29.91,SW,228,0.0,3.0,82,0.00,,,0.00,VWS V14.01,2013-08-30 07:28:00,
2013-08-30 03:33:00,80.2,74.2,29.91,SW,228,0.0,1.0,82,0.00,,,0.00,VWS V14.01,2013-08-30 07:33:00,
2013-08-30 03:38:00,80.2,74.2,29.91,SW,229,0.0,1.0,82,0.00,,,0.00,VWS V14.01,2013-08-30 07:38:00,
2013-08-30 03:44:00,80.1,74.5,29.91,SW,229,0.0,1.0,83,0.00,,,0.00,VWS V14.01,2013-08-30 07:44:00,
2013-08-30 03:50:00,80.0,74.4,29.90,SW,228,0.0,1.0,83,0.00,,,0.00,VWS V14.01,2013-08-30 07:50:00,
2013-08-30 03:56:00,79.9,74.3,29.90,SW,228,0.0,4.0,83,0.00,,,0.00,VWS V14.01,2013-08-30 07:56:00,
2013-08-30 04:02:00,79.9,74.6,29.90,SW,228,0.0,1.0,84,0.00,,,0.00,VWS V14.01,2013-08-30 08:02:00,
2013-08-30 04:08:00,79.8,74.5,29.90,SW,228,0.0,3.0,84,0.00,,,0.00,VWS V14.01,2013-08-30 08:08:00,
2013-08-30 04:13:00,79.8,74.5,29.90,SW,228,2.0,2.0,84,0.00,,,0.00,VWS V14.01,2013-08-30 08:13:00,
2013-08-30 04:21:00,79.7,74.4,29.90,SW,228,1.0,3.0,84,0.00,,,0.00,VWS V14.01,2013-08-30 08:21:00,
2013-08-30 04:27:00,79.8,74.9,29.90,SW,228,0.0,3.0,85,0.00,,,0.00,VWS V14.01,2013-08-30 08:27:00,
2013-08-30 04:33:00,79.7,74.8,29.90,SW,228,0.0,3.0,85,0.00,,,0.00,VWS V14.01,2013-08-30 08:33:00,
2013-08-30 04:38:00,79.6,74.7,29.90,SW,228,1.0,3.0,85,0.00,,,0.00,VWS V14.01,2013-08-30 08:38:00,
2013-08-30 04:43:00,79.4,74.5,29.90,SW,228,0.0,3.0,85,0.00,,,0.00,VWS V14.01,2013-08-30 08:43:00,
2013-08-30 04:48:00,79.4,74.8,29.90,SW,228,0.0,3.0,86,0.00,,,0.00,VWS V14.01,2013-08-30 08:48:00,
2013-08-30 04:54:00,79.3,74.8,29.90,SW,230,0.0,1.0,86,0.00,,,0.00,VWS V14.01,2013-08-30 08:54:00,
2013-08-30 05:00:00,79.3,74.8,29.90,SW,231,3.0,3.0,86,0.00,,,0.00,VWS V14.01,2013-08-30 09:00:00,
2013-08-30 05:06:00,79.4,74.8,29.90,SW,230,2.0,2.0,86,0.00,,,0.00,VWS V14.01,2013-08-30 09:06:00,
2013-08-30 05:12:00,79.4,74.8,29.90,SW,230,0.0,1.0,86,0.00,,,0.00,VWS V14.01,2013-08-30 09:12:00,
2013-08-30 05:18:00,79.4,74.8,29.90,SW,230,0.0,1.0,86,0.00,,,0.00,VWS V14.01,2013-08-30 09:18:00,
2013-08-30 05:23:00,79.3,74.8,29.90,SW,231,0.0,3.0,86,0.00,,,0.00,VWS V14.01,2013-08-30 09:23:00,
2013-08-30 05:28:00,79.2,74.7,29.90,SW,231,0.0,0.0,86,0.00,,,0.00,VWS V14.01,2013-08-30 09:28:00,
2013-08-30 05:33:00,79.1,74.9,29.90,SW,231,0.0,1.0,87,0.00,,,0.00,VWS V14.01,2013-08-30 09:33:00,
2013-08-30 05:38:00,79.0,74.8,29.90,SW,231,0.0,1.0,87,0.00,,,0.00,VWS V14.01,2013-08-30 09:38:00,
2013-08-30 05:45:00,78.9,74.7,29.90,SW,230,0.0,1.0,87,0.00,,,0.00,VWS V14.01,2013-08-30 09:45:00,
2013-08-30 05:51:00,78.8,74.6,29.90,SW,231,0.0,1.0,87,0.00,,,0.00,VWS V14.01,2013-08-30 09:51:00,
2013-08-30 05:57:00,78.7,74.8,29.90,SW,230,0.0,1.0,88,0.00,,,0.00,VWS V14.01,2013-08-30 09:57:00,
2013-08-30 06:03:00,78.6,74.8,29.90,SW,230,0.0,1.0,88,0.00,,,0.00,VWS V14.01,2013-08-30 10:03:00,
2013-08-30 06:08:00,78.6,74.8,29.91,SW,231,0.0,1.0,88,0.00,,,0.00,VWS V14.01,2013-08-30 10:08:00,
2013-08-30 06:13:00,78.5,74.7,29.91,SW,230,0.0,2.0,88,0.00,,,0.00,VWS V14.01,2013-08-30 10:13:00,
2013-08-30 06:18:00,78.4,74.6,29.90,SW,230,0.0,3.0,88,0.00,,,0.00,VWS V14.01,2013-08-30 10:18:00,
2013-08-30 06:23:00,78.3,74.8,29.91,SW,230,0.0,4.0,89,0.00,,,0.00,VWS V14.01,2013-08-30 10:23:00,
2013-08-30 06:28:00,78.4,74.9,29.90,SW,224,0.0,5.0,89,0.00,,,0.00,VWS V14.01,2013-08-30 10:28:00,
2013-08-30 06:33:00,78.4,74.9,29.90,SW,224,0.0,0.0,89,0.00,,,0.00,VWS V14.01,2013-08-30 10:33:00,
2013-08-30 06:38:00,78.3,74.8,29.90,SW,224,0.0,1.0,89,0.00,,,0.00,VWS V14.01,2013-08-30 10:38:00,
2013-08-30 06:43:00,78.3,74.8,29.91,SW,224,0.0,1.0,89,0.00,,,0.00,VWS V14.01,2013-08-30 10:43:00,
2013-08-30 06:48:00,78.3,74.8,29.91,SW,224,0.0,1.0,89,0.00,,,0.00,VWS V14.01,2013-08-30 10:48:00,
2013-08-30 06:53:00,78.3,74.8,29.91,SW,224,0.0,1.0,89,0.00,,,0.00,VWS V14.01,2013-08-30 10:53:00,
2013-08-30 06:58:00,78.3,74.8,29.91,SW,224,0.0,1.0,89,0.00,,,0.00,VWS V14.01,2013-08-30 10:58:00,
2013-08-30 07:03:00,78.3,74.8,29.92,SW,224,2.0,2.0,89,0.00,,,0.00,VWS V14.01,2013-08-30 11:03:00,
2013-08-30 07:09:00,78.3,74.8,29.92,SW,224,0.0,0.0,89,0.00,,,0.00,VWS V14.01,2013-08-30 11:09:00,
2013-08-30 07:15:00,78.3,74.8,29.92,SW,224,0.0,1.0,89,0.00,,,0.00,VWS V14.01,2013-08-30 11:15:00,
2013-08-30 07:21:00,78.3,74.8,29.92,SW,224,0.0,1.0,89,0.00,,,0.00,VWS V14.01,2013-08-30 11:21:00,
2013-08-30 07:27:00,78.3,74.8,29.93,SW,224,0.0,1.0,89,0.00,,,0.00,VWS V14.01,2013-08-30 11:27:00,
2013-08-30 07:33:00,78.4,74.9,29.93,SW,224,0.0,0.0,89,0.00,,,0.00,VWS V14.01,2013-08-30 11:33:00,
2013-08-30 07:38:00,78.4,74.9,29.93,SW,224,0.0,0.0,89,0.00,,,0.00,VWS V14.01,2013-08-30 11:38:00,
2013-08-30 07:43:00,78.4,74.9,29.94,SW,224,0.0,1.0,89,0.00,,,0.00,VWS V14.01,2013-08-30 11:43:00,
2013-08-30 07:48:00,78.4,74.9,29.94,SW,224,0.0,1.0,89,0.00,,,0.00,VWS V14.01,2013-08-30 11:48:00,
2013-08-30 07:53:00,78.4,74.9,29.94,SW,224,0.0,0.0,89,0.00,,,0.00,VWS V14.01,2013-08-30 11:53:00,
2013-08-30 07:58:00,78.4,74.9,29.94,SW,224,0.0,1.0,89,0.00,,,0.00,VWS V14.01,2013-08-30 11:58:00,
2013-08-30 08:03:00,78.5,75.0,29.94,SW,224,0.0,1.0,89,0.00,,,0.00,VWS V14.01,2013-08-30 12:03:00,
2013-08-30 08:09:00,78.6,75.1,29.94,SW,224,0.0,4.0,89,0.00,,,0.00,VWS V14.01,2013-08-30 12:09:00,
2013-08-30 08:15:00,78.9,75.4,29.94,SW,225,0.0,1.0,89,0.00,,,0.00,VWS V14.01,2013-08-30 12:15:00,
2013-08-30 08:21:00,79.2,75.3,29.94,SW,226,3.0,4.0,88,0.00,,,0.00,VWS V14.01,2013-08-30 12:21:00,
2013-08-30 08:27:00,79.5,75.6,29.94,SW,225,0.0,3.0,88,0.00,,,0.00,VWS V14.01,2013-08-30 12:27:00,
2013-08-30 08:33:00,79.8,75.9,29.94,SW,225,0.0,3.0,88,0.00,,,0.00,VWS V14.01,2013-08-30 12:33:00,
2013-08-30 08:38:00,80.0,75.8,29.95,SW,228,0.0,1.0,87,0.00,,,0.00,VWS V14.01,2013-08-30 12:38:00,
2013-08-30 08:43:00,80.1,75.9,29.95,SW,228,1.0,2.0,87,0.00,,,0.00,VWS V14.01,2013-08-30 12:43:00,
2013-08-30 08:48:00,80.3,75.7,29.94,SW,228,0.0,3.0,86,0.00,,,0.00,VWS V14.01,2013-08-30 12:48:00,
2013-08-30 08:53:00,80.3,76.1,29.94,SW,228,0.0,2.0,87,0.00,,,0.00,VWS V14.01,2013-08-30 12:53:00,
2013-08-30 08:58:00,80.5,75.9,29.94,SW,227,0.0,3.0,86,0.00,,,0.00,VWS V14.01,2013-08-30 12:58:00,
2013-08-30 09:03:00,80.6,76.0,29.94,SW,228,0.0,3.0,86,0.00,,,0.00,VWS V14.01,2013-08-30 13:03:00,
2013-08-30 09:08:00,80.8,76.2,29.95,SW,226,3.0,3.0,86,0.00,,,0.00,VWS V14.01,2013-08-30 13:08:00,
2013-08-30 09:13:00,80.9,76.0,29.95,SW,226,0.0,3.0,85,0.00,,,0.00,VWS V14.01,2013-08-30 13:13:00,
2013-08-30 09:18:00,81.1,76.2,29.95,SW,226,0.0,1.0,85,0.00,,,0.00,VWS V14.01,2013-08-30 13:18:00,
2013-08-30 09:23:00,81.4,76.1,29.95,SW,226,0.0,3.0,84,0.00,,,0.00,VWS V14.01,2013-08-30 13:23:00,
2013-08-30 09:28:00,81.6,76.3,29.95,SW,226,1.0,3.0,84,0.00,,,0.00,VWS V14.01,2013-08-30 13:28:00,
2013-08-30 09:33:00,81.8,76.5,29.95,SW,226,0.0,2.0,84,0.00,,,0.00,VWS V14.01,2013-08-30 13:33:00,
2013-08-30 09:38:00,82.0,76.3,29.95,SW,226,0.0,3.0,83,0.00,,,0.00,VWS V14.01,2013-08-30 13:38:00,
2013-08-30 09:43:00,82.1,76.4,29.95,SW,226,0.0,3.0,83,0.00,,,0.00,VWS V14.01,2013-08-30 13:43:00,
2013-08-30 09:48:00,82.2,76.5,29.95,SW,226,0.0,3.0,83,0.00,,,0.00,VWS V14.01,2013-08-30 13:48:00,
2013-08-30 09:53:00,82.4,76.7,29.95,SW,226,0.0,1.0,83,0.00,,,0.00,VWS V14.01,2013-08-30 13:53:00,
2013-08-30 09:58:00,82.8,76.4,29.95,SW,226,0.0,2.0,81,0.00,,,0.00,VWS V14.01,2013-08-30 13:58:00,
2013-08-30 10:03:00,83.2,76.8,29.95,SW,226,0.0,1.0,81,0.00,,,0.00,VWS V14.01,2013-08-30 14:03:00,
2013-08-30 10:08:00,83.6,76.8,29.95,SW,226,0.0,3.0,80,0.00,,,0.00,VWS V14.01,2013-08-30 14:08:00,
2013-08-30 10:13:00,83.8,76.6,29.95,SW,226,0.0,3.0,79,0.00,,,0.00,VWS V14.01,2013-08-30 14:13:00,
2013-08-30 10:18:00,84.2,77.0,29.95,SW,226,1.0,2.0,79,0.00,,,0.00,VWS V14.01,2013-08-30 14:18:00,
2013-08-30 10:23:00,84.4,76.8,29.95,SW,226,1.0,4.0,78,0.00,,,0.00,VWS V14.01,2013-08-30 14:23:00,
2013-08-30 10:28:00,84.7,77.1,29.95,SW,226,1.0,3.0,78,0.00,,,0.00,VWS V14.01,2013-08-30 14:28:00,
2013-08-30 10:33:00,85.1,77.1,29.95,SW,226,0.0,1.0,77,0.00,,,0.00,VWS V14.01,2013-08-30 14:33:00,
2013-08-30 10:38:00,85.5,77.1,29.95,SW,226,0.0,2.0,76,0.00,,,0.00,VWS V14.01,2013-08-30 14:38:00,
2013-08-30 10:43:00,85.8,77.0,29.95,SW,226,0.0,4.0,75,0.00,,,0.00,VWS V14.01,2013-08-30 14:43:00,
2013-08-30 10:48:00,86.2,77.3,29.95,SW,226,0.0,1.0,75,0.00,,,0.00,VWS V14.01,2013-08-30 14:48:00,
2013-08-30 10:53:00,86.5,77.2,29.95,SW,226,0.0,1.0,74,0.00,,,0.00,VWS V14.01,2013-08-30 14:53:00,
2013-08-30 10:58:00,86.7,77.0,29.95,SW,226,1.0,3.0,73,0.00,,,0.00,VWS V14.01,2013-08-30 14:58:00,
2013-08-30 11:04:00,87.2,77.5,29.95,SW,221,2.0,2.0,73,0.00,,,0.00,VWS V14.01,2013-08-30 15:04:00,
2013-08-30 11:10:00,87.3,77.2,29.95,SW,226,0.0,2.0,72,0.00,,,0.00,VWS V14.01,2013-08-30 15:10:00,
2013-08-30 11:16:00,87.5,76.9,29.95,SW,225,3.0,3.0,71,0.00,,,0.00,VWS V14.01,2013-08-30 15:16:00,
2013-08-30 11:22:00,87.9,77.3,29.95,SW,226,0.0,4.0,71,0.00,,,0.00,VWS V14.01,2013-08-30 15:22:00,
2013-08-30 11:28:00,88.2,77.2,29.95,SW,225,0.0,4.0,70,0.00,,,0.00,VWS V14.01,2013-08-30 15:28:00,
2013-08-30 11:33:00,88.2,76.8,29.95,SW,225,1.0,4.0,69,0.00,,,0.00,VWS V14.01,2013-08-30 15:33:00,
2013-08-30 11:38:00,88.3,76.8,29.95,SW,224,0.0,1.0,69,0.00,,,0.00,VWS V14.01,2013-08-30 15:38:00,
2013-08-30 11:43:00,88.7,76.8,29.95,SW,224,0.0,3.0,68,0.00,,,0.00,VWS V14.01,2013-08-30 15:43:00,
2013-08-30 11:48:00,88.9,77.0,29.95,SW,224,0.0,3.0,68,0.00,,,0.00,VWS V14.01,2013-08-30 15:48:00,
2013-08-30 11:53:00,89.1,77.2,29.95,SW,224,0.0,1.0,68,0.00,,,0.00,VWS V14.01,2013-08-30 15:53:00,
2013-08-30 11:58:00,89.4,77.4,29.95,SW,224,0.0,1.0,68,0.00,,,0.00,VWS V14.01,2013-08-30 15:58:00,
2013-08-30 12:03:00,89.8,77.4,29.95,SW,223,0.0,1.0,67,0.00,,,0.00,VWS V14.01,2013-08-30 16:03:00,
2013-08-30 12:08:00,90.1,77.2,29.94,SW,223,0.0,5.0,66,0.00,,,0.00,VWS V14.01,2013-08-30 16:08:00,
2013-08-30 12:13:00,90.1,77.2,29.94,SW,219,0.0,5.0,66,0.00,,,0.00,VWS V14.01,2013-08-30 16:13:00,
2013-08-30 12:18:00,90.3,77.4,29.94,SW,219,0.0,3.0,66,0.00,,,0.00,VWS V14.01,2013-08-30 16:18:00,
2013-08-30 12:23:00,90.2,77.3,29.94,SW,219,0.0,3.0,66,0.00,,,0.00,VWS V14.01,2013-08-30 16:23:00,
2013-08-30 12:28:00,90.4,77.0,29.94,SW,219,0.0,4.0,65,0.00,,,0.00,VWS V14.01,2013-08-30 16:28:00,
2013-08-30 12:34:00,91.1,77.2,29.94,SW,221,2.0,4.0,64,0.00,,,0.00,VWS V14.01,2013-08-30 16:34:00,
2013-08-30 12:40:00,90.8,76.9,29.93,SW,224,0.0,4.0,64,0.00,,,0.00,VWS V14.01,2013-08-30 16:40:00,
2013-08-30 12:46:00,90.8,77.4,29.93,SW,224,0.0,1.0,65,0.00,,,0.00,VWS V14.01,2013-08-30 16:46:00,
2013-08-30 12:52:00,91.2,76.8,29.93,SW,223,0.0,3.0,63,0.00,,,0.00,VWS V14.01,2013-08-30 16:52:00,
2013-08-30 12:58:00,91.3,76.9,29.93,SW,222,1.0,4.0,63,0.00,,,0.00,VWS V14.01,2013-08-30 16:58:00,
2013-08-30 13:04:00,91.1,76.3,29.92,SW,222,0.0,1.0,62,0.00,,,0.00,VWS V14.01,2013-08-30 17:04:00,
2013-08-30 13:10:00,91.1,75.8,29.92,SW,221,1.0,2.0,61,0.00,,,0.00,VWS V14.01,2013-08-30 17:10:00,
2013-08-30 13:16:00,91.7,75.8,29.92,SW,221,0.0,4.0,60,0.00,,,0.00,VWS V14.01,2013-08-30 17:16:00,
2013-08-30 13:22:00,92.1,76.2,29.92,SW,223,2.0,5.0,60,0.00,,,0.00,VWS V14.01,2013-08-30 17:22:00,
2013-08-30 13:28:00,91.8,76.4,29.92,SW,221,2.0,6.0,61,0.00,,,0.00,VWS V14.01,2013-08-30 17:28:00,
2013-08-30 13:33:00,91.8,75.9,29.91,SW,222,0.0,6.0,60,0.00,,,0.00,VWS V14.01,2013-08-30 17:33:00,
2013-08-30 13:38:00,91.9,75.0,29.91,SW,220,0.0,4.0,58,0.00,,,0.00,VWS V14.01,2013-08-30 17:38:00,
2013-08-30 13:43:00,92.4,75.5,29.91,SSW,212,0.0,1.0,58,0.00,,,0.00,VWS V14.01,2013-08-30 17:43:00,
2013-08-30 13:50:00,92.5,76.6,29.91,SW,214,0.0,3.0,60,0.00,,,0.00,VWS V14.01,2013-08-30 17:50:00,
2013-08-30 13:56:00,92.8,75.9,29.90,SW,218,0.0,4.0,58,0.00,,,0.00,VWS V14.01,2013-08-30 17:56:00,
2013-08-30 14:02:00,92.9,76.5,29.90,SSW,206,0.0,4.0,59,0.00,,,0.00,VWS V14.01,2013-08-30 18:02:00,
2013-08-30 14:08:00,93.1,75.1,29.90,SW,221,0.0,7.0,56,0.00,,,0.00,VWS V14.01,2013-08-30 18:08:00,
2013-08-30 14:13:00,92.7,75.2,29.90,SW,224,5.0,5.0,57,0.00,,,0.00,VWS V14.01,2013-08-30 18:13:00,
2013-08-30 14:18:00,92.6,75.2,29.90,SW,228,3.0,6.0,57,0.00,,,0.00,VWS V14.01,2013-08-30 18:18:00,
2013-08-30 14:23:00,92.6,75.2,29.90,SW,218,4.0,6.0,57,0.00,,,0.00,VWS V14.01,2013-08-30 18:23:00,
2013-08-30 14:28:00,92.8,75.3,29.89,SW,218,5.0,5.0,57,0.00,,,0.00,VWS V14.01,2013-08-30 18:28:00,
2013-08-30 14:33:00,92.6,75.2,29.89,SW,220,2.0,5.0,57,0.00,,,0.00,VWS V14.01,2013-08-30 18:33:00,
2013-08-30 14:38:00,92.9,74.9,29.88,SW,223,1.0,4.0,56,0.00,,,0.00,VWS V14.01,2013-08-30 18:38:00,
2013-08-30 14:43:00,93.2,74.6,29.88,SW,220,4.0,5.0,55,0.00,,,0.00,VWS V14.01,2013-08-30 18:43:00,
2013-08-30 14:48:00,93.4,75.4,29.88,WSW,238,2.0,5.0,56,0.00,,,0.00,VWS V14.01,2013-08-30 18:48:00,
2013-08-30 14:53:00,93.2,75.2,29.88,SW,217,1.0,5.0,56,0.00,,,0.00,VWS V14.01,2013-08-30 18:53:00,
2013-08-30 14:59:00,93.4,75.4,29.88,SW,234,3.0,5.0,56,0.00,,,0.00,VWS V14.01,2013-08-30 18:59:00,
2013-08-30 15:05:00,93.4,74.8,29.87,SW,230,0.0,3.0,55,0.00,,,0.00,VWS V14.01,2013-08-30 19:05:00,
2013-08-30 15:11:00,93.8,74.7,29.87,SW,216,0.0,3.0,54,0.00,,,0.00,VWS V14.01,2013-08-30 19:11:00,
2013-08-30 15:17:00,94.4,74.6,29.87,SW,216,0.0,2.0,53,0.00,,,0.00,VWS V14.01,2013-08-30 19:17:00,
2013-08-30 15:23:00,93.9,74.2,29.87,SW,216,2.0,3.0,53,0.00,,,0.00,VWS V14.01,2013-08-30 19:23:00,
2013-08-30 15:28:00,93.5,73.8,29.87,SW,216,0.0,5.0,53,0.00,,,0.00,VWS V14.01,2013-08-30 19:28:00,
2013-08-30 15:33:00,93.1,73.4,29.86,SW,216,0.0,3.0,53,0.00,,,0.00,VWS V14.01,2013-08-30 19:33:00,
2013-08-30 15:38:00,93.1,73.4,29.86,SW,216,1.0,3.0,53,0.00,,,0.00,VWS V14.01,2013-08-30 19:38:00,
2013-08-30 15:43:00,93.1,73.4,29.85,SW,216,0.0,3.0,53,0.00,,,0.00,VWS V14.01,2013-08-30 19:43:00,
2013-08-30 15:48:00,93.3,73.1,29.85,SW,216,0.0,3.0,52,0.00,,,0.00,VWS V14.01,2013-08-30 19:48:00,
2013-08-30 15:53:00,93.7,73.4,29.85,SW,216,1.0,3.0,52,0.00,,,0.00,VWS V14.01,2013-08-30 19:53:00,
2013-08-30 15:58:00,94.0,73.1,29.85,SSW,213,0.0,4.0,51,0.00,,,0.00,VWS V14.01,2013-08-30 19:58:00,
2013-08-30 16:03:00,94.5,73.6,29.85,East,89,2.0,5.0,51,0.00,,,0.00,VWS V14.01,2013-08-30 20:03:00,
2013-08-30 16:08:00,94.5,73.6,29.85,SE,129,0.0,3.0,51,0.00,,,0.00,VWS V14.01,2013-08-30 20:08:00,
2013-08-30 16:13:00,94.5,73.0,29.85,South,173,0.0,3.0,50,0.00,,,0.00,VWS V14.01,2013-08-30 20:13:00,
2013-08-30 16:18:00,94.7,72.0,29.85,South,191,0.0,4.0,48,0.00,,,0.00,VWS V14.01,2013-08-30 20:18:00,
2013-08-30 16:23:00,94.7,72.0,29.85,South,187,1.0,2.0,48,0.00,,,0.00,VWS V14.01,2013-08-30 20:23:00,
2013-08-30 16:28:00,94.6,70.0,29.85,East,91,0.0,5.0,45,0.00,,,0.00,VWS V14.01,2013-08-30 20:28:00,
2013-08-30 16:33:00,94.4,71.1,29.85,SSW,197,0.0,3.0,47,0.00,,,0.00,VWS V14.01,2013-08-30 20:33:00,
2013-08-30 16:38:00,94.3,70.4,29.85,SW,216,2.0,5.0,46,0.00,,,0.00,VWS V14.01,2013-08-30 20:38:00,
2013-08-30 16:43:00,94.2,69.6,29.84,SW,216,0.0,2.0,45,0.00,,,0.00,VWS V14.01,2013-08-30 20:43:00,
2013-08-30 16:48:00,94.0,70.7,29.84,SW,216,0.0,1.0,47,0.00,,,0.00,VWS V14.01,2013-08-30 20:48:00,
2013-08-30 16:53:00,93.8,71.2,29.84,SW,218,0.0,2.0,48,0.00,,,0.00,VWS V14.01,2013-08-30 20:53:00,
2013-08-30 16:58:00,93.5,70.9,29.84,SSW,206,0.0,3.0,48,0.00,,,0.00,VWS V14.01,2013-08-30 20:58:00,
2013-08-30 17:03:00,93.5,71.5,29.84,SSW,206,0.0,2.0,49,0.00,,,0.00,VWS V14.01,2013-08-30 21:03:00,
2013-08-30 17:08:00,93.7,72.8,29.84,SSW,205,0.0,2.0,51,0.00,,,0.00,VWS V14.01,2013-08-30 21:08:00,
2013-08-30 17:13:00,93.7,72.8,29.85,SSW,205,0.0,1.0,51,0.00,,,0.00,VWS V14.01,2013-08-30 21:13:00,
2013-08-30 17:18:00,93.5,72.1,29.85,SSW,205,0.0,1.0,50,0.00,,,0.00,VWS V14.01,2013-08-30 21:18:00,
2013-08-30 17:23:00,93.2,73.0,29.84,SSW,205,0.0,2.0,52,0.00,,,0.00,VWS V14.01,2013-08-30 21:23:00,
2013-08-30 17:28:00,92.7,71.9,29.84,SSW,203,0.0,1.0,51,0.00,,,0.00,VWS V14.01,2013-08-30 21:28:00,
2013-08-30 17:33:00,92.4,72.8,29.85,SE,145,0.0,1.0,53,0.00,,,0.00,VWS V14.01,2013-08-30 21:33:00,
2013-08-30 17:38:00,92.1,72.5,29.85,SE,145,0.0,1.0,53,0.00,,,0.00,VWS V14.01,2013-08-30 21:38:00,
2013-08-30 17:43:00,91.8,71.7,29.85,SE,145,0.0,1.0,52,0.00,,,0.00,VWS V14.01,2013-08-30 21:43:00,
2013-08-30 17:48:00,91.6,71.5,29.85,SE,145,0.0,1.0,52,0.00,,,0.00,VWS V14.01,2013-08-30 21:48:00,
2013-08-30 17:53:00,91.4,71.3,29.85,SE,145,0.0,1.0,52,0.00,,,0.00,VWS V14.01,2013-08-30 21:53:00,
2013-08-30 17:58:00,91.2,71.7,29.86,SE,145,1.0,2.0,53,0.00,,,0.00,VWS V14.01,2013-08-30 21:58:00,
2013-08-30 18:03:00,89.6,72.9,29.87,NNE,22,0.0,10.0,58,0.00,,,0.00,VWS V14.01,2013-08-30 22:03:00,
2013-08-30 18:08:00,87.8,73.2,29.88,NNE,33,6.0,8.0,62,0.00,,,0.00,VWS V14.01,2013-08-30 22:08:00,
2013-08-30 18:13:00,86.5,72.9,29.88,ENE,68,3.0,9.0,64,0.00,,,0.00,VWS V14.01,2013-08-30 22:13:00,
2013-08-30 18:18:00,84.8,72.6,29.89,East,87,3.0,8.0,67,0.00,,,0.00,VWS V14.01,2013-08-30 22:18:00,
2013-08-30 18:23:00,83.2,72.8,29.89,East,81,2.0,9.0,71,0.00,,,0.00,VWS V14.01,2013-08-30 22:23:00,
2013-08-30 18:28:00,81.3,73.0,29.88,ENE,70,3.0,7.0,76,0.04,,,0.04,VWS V14.01,2013-08-30 22:28:00,
2013-08-30 18:33:00,79.7,72.6,29.88,NE,56,0.0,8.0,79,0.04,,,0.04,VWS V14.01,2013-08-30 22:33:00,
2013-08-30 18:38:00,79.0,72.7,29.88,ENE,65,2.0,3.0,81,0.05,,,0.05,VWS V14.01,2013-08-30 22:38:00,
2013-08-30 18:43:00,78.4,72.8,29.88,East,84,2.0,5.0,83,0.06,,,0.06,VWS V14.01,2013-08-30 22:43:00,
2013-08-30 18:48:00,78.0,73.1,29.88,NE,47,0.0,5.0,85,0.07,,,0.07,VWS V14.01,2013-08-30 22:48:00,
2013-08-30 18:53:00,77.8,73.6,29.88,NE,43,1.0,5.0,87,0.10,,,0.10,VWS V14.01,2013-08-30 22:53:00,
2013-08-30 18:58:00,77.6,73.8,29.88,ENE,57,0.0,6.0,88,0.11,,,0.11,VWS V14.01,2013-08-30 22:58:00,
2013-08-30 19:03:00,77.6,73.8,29.88,ENE,70,0.0,5.0,88,0.11,,,0.11,VWS V14.01,2013-08-30 23:03:00,
2013-08-30 19:08:00,77.7,73.9,29.88,East,85,2.0,3.0,88,0.11,,,0.11,VWS V14.01,2013-08-30 23:08:00,
2013-08-30 19:13:00,77.8,73.6,29.89,East,81,0.0,3.0,87,0.11,,,0.11,VWS V14.01,2013-08-30 23:13:00,
2013-08-30 19:18:00,77.9,73.4,29.89,East,81,0.0,3.0,86,0.11,,,0.11,VWS V14.01,2013-08-30 23:18:00,
2013-08-30 19:23:00,78.1,73.6,29.89,East,81,0.0,3.0,86,0.11,,,0.11,VWS V14.01,2013-08-30 23:23:00,
2013-08-30 19:28:00,78.2,73.7,29.89,East,81,0.0,1.0,86,0.11,,,0.11,VWS V14.01,2013-08-30 23:28:00,
2013-08-30 19:33:00,78.3,73.4,29.89,East,81,0.0,1.0,85,0.07,,,0.11,VWS V14.01,2013-08-30 23:33:00,
2013-08-30 19:39:00,78.5,73.6,29.89,East,81,1.0,1.0,85,0.06,,,0.11,VWS V14.01,2013-08-30 23:39:00,
2013-08-30 19:45:00,78.7,73.8,29.88,East,81,0.0,1.0,85,0.05,,,0.11,VWS V14.01,2013-08-30 23:45:00,
2013-08-30 19:51:00,79.0,74.1,29.88,East,81,0.0,1.0,85,0.04,,,0.11,VWS V14.01,2013-08-30 23:51:00,
2013-08-30 19:57:00,79.1,74.2,29.88,East,81,0.0,0.0,85,0.01,,,0.11,VWS V14.01,2013-08-30 23:57:00,
2013-08-30 20:03:00,79.1,74.6,29.89,East,81,0.0,0.0,86,0.00,,,0.11,VWS V14.01,2013-08-31 00:03:00,
2013-08-30 20:08:00,79.0,74.8,29.89,East,81,0.0,0.0,87,0.00,,,0.11,VWS V14.01,2013-08-31 00:08:00,
2013-08-30 20:13:00,78.8,74.9,29.89,East,81,0.0,0.0,88,0.00,,,0.11,VWS V14.01,2013-08-31 00:13:00,
2013-08-30 20:18:00,78.7,74.8,29.89,East,81,0.0,0.0,88,0.00,,,0.11,VWS V14.01,2013-08-31 00:18:00,
2013-08-30 20:24:00,78.7,75.2,29.89,East,81,0.0,0.0,89,0.00,,,0.11,VWS V14.01,2013-08-31 00:24:00,
2013-08-30 20:30:00,78.9,75.4,29.90,East,81,0.0,1.0,89,0.00,,,0.11,VWS V14.01,2013-08-31 00:30:00,
2013-08-30 20:36:00,79.2,75.0,29.90,East,91,0.0,4.0,87,0.00,,,0.11,VWS V14.01,2013-08-31 00:36:00,
2013-08-30 20:42:00,79.5,74.9,29.90,East,100,1.0,5.0,86,0.00,,,0.11,VWS V14.01,2013-08-31 00:42:00,
2013-08-30 20:48:00,79.7,74.8,29.90,East,99,0.0,2.0,85,0.00,,,0.11,VWS V14.01,2013-08-31 00:48:00,
2013-08-30 20:53:00,79.9,75.0,29.90,East,100,0.0,1.0,85,0.00,,,0.11,VWS V14.01,2013-08-31 00:53:00,
2013-08-30 20:58:00,80.1,74.8,29.91,East,99,0.0,1.0,84,0.00,,,0.11,VWS V14.01,2013-08-31 00:58:00,
2013-08-30 21:03:00,80.2,75.3,29.91,East,100,0.0,1.0,85,0.00,,,0.11,VWS V14.01,2013-08-31 01:03:00,
2013-08-30 21:08:00,80.1,74.8,29.91,East,99,0.0,0.0,84,0.00,,,0.11,VWS V14.01,2013-08-31 01:08:00,
2013-08-30 21:13:00,80.1,74.8,29.91,East,100,0.0,1.0,84,0.00,,,0.11,VWS V14.01,2013-08-31 01:13:00,
2013-08-30 21:18:00,80.1,74.8,29.91,East,99,0.0,1.0,84,0.00,,,0.11,VWS V14.01,2013-08-31 01:18:00,
2013-08-30 21:24:00,80.3,75.0,29.91,East,100,0.0,0.0,84,0.00,,,0.11,VWS V14.01,2013-08-31 01:24:00,
2013-08-30 21:30:00,80.4,75.1,29.92,East,100,1.0,1.0,84,0.00,,,0.11,VWS V14.01,2013-08-31 01:30:00,
2013-08-30 21:36:00,80.5,74.9,29.92,East,100,0.0,1.0,83,0.00,,,0.11,VWS V14.01,2013-08-31 01:36:00,
2013-08-30 21:42:00,80.6,75.3,29.92,East,100,0.0,1.0,84,0.00,,,0.11,VWS V14.01,2013-08-31 01:42:00,
2013-08-30 21:48:00,80.6,75.3,29.92,East,99,0.0,0.0,84,0.00,,,0.11,VWS V14.01,2013-08-31 01:48:00,
2013-08-30 21:53:00,80.6,75.3,29.92,East,100,0.0,1.0,84,0.00,,,0.11,VWS V14.01,2013-08-31 01:53:00,
2013-08-30 21:58:00,80.6,75.7,29.93,East,99,0.0,1.0,85,0.00,,,0.11,VWS V14.01,2013-08-31 01:58:00,
2013-08-30 22:03:00,80.6,76.0,29.93,East,100,0.0,0.0,86,0.00,,,0.11,VWS V14.01,2013-08-31 02:03:00,
2013-08-30 22:08:00,80.3,75.4,29.93,SW,230,0.0,7.0,85,0.00,,,0.11,VWS V14.01,2013-08-31 02:08:00,
2013-08-30 22:13:00,79.9,75.3,29.93,WNW,285,0.0,3.0,86,0.00,,,0.11,VWS V14.01,2013-08-31 02:13:00,
2013-08-30 22:18:00,79.6,75.4,29.94,WNW,285,0.0,1.0,87,0.00,,,0.11,VWS V14.01,2013-08-31 02:18:00,
2013-08-30 22:23:00,79.3,75.1,29.94,SW,226,0.0,3.0,87,0.00,,,0.11,VWS V14.01,2013-08-31 02:23:00,
2013-08-30 22:28:00,79.1,74.9,29.93,SW,226,0.0,2.0,87,0.00,,,0.11,VWS V14.01,2013-08-31 02:28:00,
2013-08-30 22:34:00,78.9,74.7,29.93,West,270,1.0,1.0,87,0.00,,,0.11,VWS V14.01,2013-08-31 02:34:00,
2013-08-30 22:40:00,78.6,74.4,29.94,West,268,0.0,1.0,87,0.00,,,0.11,VWS V14.01,2013-08-31 02:40:00,
2013-08-30 22:46:00,78.5,74.3,29.94,WSW,244,1.0,3.0,87,0.00,,,0.11,VWS V14.01,2013-08-31 02:46:00,
2013-08-30 22:52:00,78.3,74.5,29.93,WSW,240,3.0,5.0,88,0.00,,,0.11,VWS V14.01,2013-08-31 02:52:00,
2013-08-30 22:58:00,78.0,74.5,29.92,West,265,0.0,3.0,89,0.00,,,0.11,VWS V14.01,2013-08-31 02:58:00,
2013-08-30 23:03:00,77.8,74.3,29.92,West,265,2.0,5.0,89,0.00,,,0.11,VWS V14.01,2013-08-31 03:03:00,
2013-08-30 23:08:00,77.7,74.2,29.92,SW,235,0.0,3.0,89,0.00,,,0.11,VWS V14.01,2013-08-31 03:08:00,
2013-08-30 23:13:00,77.6,74.1,29.92,WSW,243,0.0,5.0,89,0.00,,,0.11,VWS V14.01,2013-08-31 03:13:00,
2013-08-30 23:18:00,77.5,73.7,29.92,West,266,0.0,3.0,88,0.00,,,0.11,VWS V14.01,2013-08-31 03:18:00,
2013-08-30 23:23:00,77.4,73.6,29.92,West,266,0.0,1.0,88,0.00,,,0.11,VWS V14.01,2013-08-31 03:23:00,
2013-08-30 23:28:00,77.4,73.2,29.91,WNW,283,0.0,3.0,87,0.00,,,0.11,VWS V14.01,2013-08-31 03:28:00,
2013-08-30 23:33:00,77.3,73.1,29.91,WNW,283,0.0,0.0,87,0.00,,,0.11,VWS V14.01,2013-08-31 03:33:00,
2013-08-30 23:38:00,77.3,73.1,29.91,WNW,282,0.0,1.0,87,0.00,,,0.11,VWS V14.01,2013-08-31 03:38:00,
2013-08-30 23:43:00,77.2,73.0,29.91,WNW,282,0.0,0.0,87,0.00,,,0.11,VWS V14.01,2013-08-31 03:43:00,
2013-08-30 23:48:00,77.3,73.5,29.91,WNW,283,0.0,1.0,88,0.00,,,0.11,VWS V14.01,2013-08-31 03:48:00,
2013-08-30 23:53:00,77.2,73.0,29.91,WNW,283,0.0,1.0,87,0.00,,,0.11,VWS V14.01,2013-08-31 03:53:00,
2013-08-30 23:58:00,77.1,73.3,29.90,WNW,283,1.0,1.0,88,0.00,,,0.00,VWS V14.01,2013-08-31 03:58:00,